Total_Precipitation_Accumulation
0.18 0.20 0.22 0.30 0.40 0.61 0.81 0.71 0.49 0.40 0.39 0.39 0.37 0.41 0.49 0.55 0.66 0.74 0.78 0.81 0.79 0.81 0.72 0.67 0.72 0.74 0.89 0.89 0.83 0.70 0.53 0.43 0.44 0.32 0.15 0.06 0.03 0.01 0.00 0.00 0.00 0.00 0.00
0.15 0.12 0.14 0.22 0.33 0.38 0.42 0.46 0.37 0.24 0.19 0.23 0.25 0.27 0.34 0.43 0.48 0.51 0.58 0.63 0.64 0.67 0.63 0.56 0.58 0.62 0.67 0.75 0.80 0.77 0.67 0.50 0.46 0.41 0.19 0.08 0.05 0.02 0.01 0.00 0.00 0.00 0.00
0.15 0.16 0.14 0.13 0.15 0.15 0.12 0.11 0.12 0.12 0.10 0.13 0.18 0.24 0.32 0.38 0.48 0.49 0.50 0.53 0.54 0.51 0.52 0.51 0.49 0.52 0.60 0.65 0.61 0.66 0.67 0.61 0.52 0.48 0.30 0.13 0.09 0.05 0.02 0.00 0.00 0.00 0.00
0.30 0.31 0.25 0.20 0.15 0.12 0.09 0.07 0.07 0.07 0.07 0.12 0.18 0.25 0.28 0.32 0.38 0.39 0.43 0.47 0.45 0.41 0.41 0.40 0.37 0.36 0.41 0.57 0.55 0.52 0.57 0.58 0.61 0.57 0.42 0.21 0.13 0.09 0.04 0.02 0.00 0.00 0.00
0.35 0.41 0.36 0.33 0.28 0.23 0.16 0.11 0.10 0.10 0.09 0.13 0.18 0.28 0.32 0.33 0.30 0.35 0.38 0.45 0.43 0.38 0.36 0.36 0.35 0.39 0.52 0.56 0.51 0.53 0.57 0.54 0.58 0.57 0.49 0.32 0.18 0.10 0.05 0.03 0.01 0.00 0.00
0.36 0.44 0.55 0.53 0.41 0.31 0.23 0.18 0.17 0.17 0.16 0.16 0.19 0.28 0.33 0.29 0.54 0.59 0.44 0.40 0.39 0.33 0.31 0.29 0.27 0.29 0.45 0.64 0.66 0.61 0.62 0.65 0.61 0.54 0.47 0.37 0.26 0.17 0.12 0.07 0.03 0.01 0.00
0.37 0.45 0.61 0.58 0.43 0.37 0.36 0.32 0.28 0.29 0.29 0.24 0.22 0.22 0.25 0.37 0.36 0.30 0.26 0.24 0.31 0.29 0.24 0.21 0.17 0.17 0.23 0.32 0.40 0.42 0.54 0.73 0.81 0.70 0.50 0.42 0.44 0.34 0.22 0.12 0.06 0.02 0.01
0.33 0.38 0.49 0.48 0.44 0.45 0.44 0.39 0.33 0.31 0.31 0.29 0.27 0.26 0.28 0.31 0.23 0.19 0.18 0.15 0.21 0.21 0.18 0.17 0.17 0.17 0.18 0.25 0.36 0.40 0.43 0.53 0.69 0.66 0.53 0.52 0.52 0.43 0.31 0.23 0.17 0.12 0.06
0.24 0.30 0.37 0.39 0.41 0.42 0.41 0.42 0.39 0.35 0.34 0.32 0.31 0.35 0.36 0.32 0.26 0.18 0.14 0.16 0.18 0.16 0.14 0.15 0.15 0.17 0.24 0.29 0.30 0.33 0.42 0.47 0.62 0.65 0.67 0.64 0.50 0.35 0.30 0.26 0.23 0.17 0.10
0.17 0.23 0.29 0.31 0.35 0.38 0.42 0.44 0.43 0.40 0.36 0.34 0.33 0.32 0.35 0.33 0.33 0.17 0.14 0.19 0.19 0.19 0.20 0.20 0.24 0.25 0.31 0.34 0.31 0.37 0.45 0.41 0.41 0.46 0.45 0.41 0.31 0.23 0.25 0.21 0.20 0.19 0.13
0.09 0.14 0.20 0.27 0.35 0.43 0.48 0.48 0.49 0.46 0.40 0.38 0.42 0.38 0.35 0.38 0.42 0.29 0.22 0.21 0.23 0.24 0.26 0.28 0.28 0.28 0.32 0.38 0.39 0.48 0.63 0.56 0.41 0.41 0.44 0.38 0.26 0.19 0.18 0.19 0.19 0.18 0.18
0.05 0.10 0.16 0.25 0.32 0.40 0.48 0.50 0.49 0.49 0.48 0.47 0.47 0.48 0.45 0.40 0.41 0.41 0.31 0.24 0.21 0.22 0.31 0.33 0.31 0.28 0.24 0.26 0.28 0.38 0.63 0.61 0.41 0.38 0.40 0.40 0.36 0.29 0.27 0.24 0.20 0.18 0.16
0.02 0.05 0.10 0.14 0.19 0.23 0.29 0.37 0.44 0.48 0.48 0.47 0.49 0.56 0.57 0.50 0.49 0.53 0.33 0.21 0.18 0.20 0.24 0.29 0.28 0.25 0.21 0.17 0.20 0.28 0.44 0.58 0.51 0.39 0.34 0.35 0.39 0.39 0.34 0.27 0.20 0.16 0.13
0.01 0.02 0.04 0.05 0.06 0.09 0.18 0.26 0.33 0.40 0.44 0.50 0.54 0.62 0.69 0.62 0.54 0.43 0.31 0.24 0.20 0.17 0.15 0.14 0.15 0.17 0.18 0.18 0.17 0.20 0.33 0.52 0.55 0.47 0.39 0.39 0.42 0.40 0.32 0.26 0.22 0.19 0.15
0.01 0.01 0.02 0.03 0.04 0.07 0.13 0.22 0.26 0.34 0.35 0.38 0.47 0.58 0.60 0.59 0.57 0.57 0.50 0.43 0.36 0.32 0.26 0.19 0.15 0.15 0.17 0.20 0.21 0.22 0.29 0.40 0.44 0.41 0.37 0.34 0.36 0.38 0.35 0.29 0.24 0.20 0.17
0.06 0.03 0.02 0.02 0.05 0.07 0.09 0.11 0.12 0.15 0.15 0.18 0.22 0.26 0.30 0.33 0.34 0.29 0.32 0.34 0.31 0.24 0.26 0.31 0.31 0.30 0.29 0.27 0.25 0.22 0.21 0.26 0.33 0.35 0.34 0.32 0.31 0.35 0.37 0.33 0.28 0.24 0.20
0.14 0.11 0.06 0.05 0.04 0.05 0.05 0.06 0.06 0.05 0.04 0.06 0.07 0.12 0.18 0.19 0.19 0.17 0.18 0.20 0.24 0.24 0.30 0.36 0.34 0.29 0.25 0.23 0.22 0.20 0.18 0.19 0.23 0.27 0.29 0.31 0.31 0.34 0.39 0.39 0.35 0.32 0.28
0.03 0.03 0.04 0.07 0.05 0.04 0.06 0.12 0.16 0.15 0.10 0.05 0.03 0.04 0.07 0.11 0.13 0.13 0.13 0.14 0.15 0.17 0.23 0.30 0.27 0.23 0.17 0.13 0.12 0.12 0.13 0.14 0.17 0.22 0.26 0.29 0.33 0.36 0.39 0.43 0.46 0.44 0.40
0.00 0.02 0.08 0.10 0.05 0.04 0.10 0.17 0.19 0.16 0.14 0.07 0.02 0.01 0.02 0.03 0.05 0.06 0.08 0.10 0.11 0.10 0.12 0.18 0.20 0.18 0.14 0.11 0.08 0.06 0.06 0.06 0.08 0.12 0.18 0.23 0.28 0.33 0.38 0.40 0.43 0.48 0.48
0.02 0.02 0.08 0.14 0.08 0.08 0.10 0.10 0.10 0.10 0.07 0.04 0.03 0.02 0.01 0.02 0.03 0.03 0.03 0.05 0.06 0.06 0.07 0.10 0.13 0.14 0.13 0.11 0.08 0.06 0.05 0.05 0.05 0.06 0.10 0.15 0.19 0.22 0.27 0.33 0.39 0.41 0.40
0.06 0.03 0.02 0.14 0.17 0.14 0.12 0.10 0.11 0.12 0.08 0.04 0.03 0.01 0.01 0.03 0.05 0.05 0.03 0.03 0.04 0.05 0.06 0.07 0.08 0.13 0.11 0.10 0.09 0.08 0.06 0.06 0.06 0.06 0.07 0.08 0.11 0.14 0.17 0.19 0.22 0.27 0.32
0.02 0.03 0.04 0.13 0.18 0.14 0.11 0.11 0.11 0.10 0.07 0.04 0.03 0.01 0.01 0.03 0.04 0.05 0.04 0.05 0.05 0.05 0.05 0.05 0.07 0.11 0.12 0.10 0.08 0.10 0.09 0.08 0.06 0.07 0.08 0.09 0.09 0.09 0.09 0.11 0.12 0.14 0.17
0.01 0.02 0.03 0.07 0.08 0.04 0.05 0.08 0.09 0.08 0.06 0.03 0.02 0.01 0.02 0.02 0.03 0.03 0.04 0.07 0.09 0.10 0.08 0.06 0.08 0.12 0.14 0.14 0.12 0.12 0.12 0.12 0.10 0.08 0.08 0.10 0.11 0.11 0.10 0.10 0.10 0.12 0.14
0.01 0.01 0.02 0.04 0.04 0.05 0.07 0.08 0.07 0.06 0.06 0.03 0.02 0.02 0.03 0.04 0.04 0.03 0.04 0.07 0.10 0.11 0.08 0.07 0.07 0.09 0.12 0.14 0.16 0.16 0.15 0.14 0.11 0.08 0.08 0.08 0.09 0.09 0.10 0.10 0.12 0.14 0.16
0.02 0.01 0.02 0.03 0.04 0.05 0.05 0.06 0.07 0.06 0.07 0.06 0.05 0.03 0.04 0.05 0.06 0.04 0.03 0.04 0.06 0.06 0.05 0.05 0.07 0.11 0.13 0.14 0.16 0.18 0.22 0.22 0.16 0.11 0.09 0.09 0.09 0.11 0.12 0.14 0.17 0.20 0.23
0.02 0.01 0.02 0.04 0.05 0.05 0.06 0.06 0.06 0.06 0.06 0.06 0.06 0.05 0.06 0.06 0.05 0.04 0.03 0.04 0.04 0.04 0.07 0.07 0.08 0.11 0.13 0.14 0.12 0.12 0.14 0.13 0.13 0.13 0.10 0.08 0.09 0.11 0.14 0.17 0.21 0.25 0.29